Regional Weather Roundup
Issued by NWS Columbia, SC

Home | Current Version | Previous Version | Text Only | Print | Product List | Glossary On
Versions: 1 2 3 4 5 6 7 8 9 10 11 12 13 14 15 16 17 18 19 20 21 22 23 24 25 26 27 28 29 30 31 32 33 34 35 36 37 38 39 40 41 42 43 44 45 46 47 48 49 50
000
ASUS42 KCAE 212010
RWRCAE
REGIONAL WEATHER ROUNDUP
NATIONAL WEATHER SERVICE COLUMBIA SC
400 PM EDT TUE OCT 21 2014

NOTE: "FAIR" INDICATES FEW OR NO CLOUDS BELOW 12,000 FEET WITH NO
SIGNIFICANT WEATHER AND/OR OBSTRUCTIONS TO VISIBILITY.

NOT ALL STATIONS ARE QUALITY CONTROLLED BY THE NATIONAL
WEATHER SERVICE. USE DATA WITH CAUTION...ESPECIALLY
DEWPOINT OBSERVATIONS.

SCZ001>056-GAZ040-063>065-077-212100-
...UPSTATE SOUTH CAROLINA...

CITY           SKY/WX    TMP DP  RH WIND       PRES   REMARKS
ANDERSON       SUNNY     74  45  35 W12       29.89F
LIBERTY        FAIR      74  53  47 SW7       29.88S
SPARTANBURG    PTSUNNY   73  45  35 W7        29.87S
CLEMSON        SUNNY     75  45  34 W12       29.89F
GREENVILLE     MOSUNNY   74  43  32 W7        29.89F
GREENWOOD      SUNNY     74  49  41 W10G23    29.89F
GREER          MOSUNNY   74  48  39 SW8       29.87S
ROCK HILL      MOSUNNY   74  47  38 NW9       29.87F


...CENTRAL SOUTH CAROLINA...

CITY           SKY/WX    TMP DP  RH WIND       PRES   REMARKS
COLUMBIA APT   SUNNY     79  44  28 W16       29.85F
COLUMBIA OWENS SUNNY     78  44  29 W8G18     29.86F
DARLINGTON     SUNNY     77  48  36 SW10G16   29.85S
FLORENCE       SUNNY     78  47  33 W12       29.84F
MCENTIRE ANGB  MOSUNNY   78  46  31 CALM      29.86F
ORANGEBURG     SUNNY     79  44  28 W12       29.87F
SUMTER SHAW    SUNNY     78  47  32 W13G18    29.84F
NEWBERRY       FAIR      75  52  43 W15       29.90S
AIKEN          FAIR      77  52  41 W12G21    29.91F
BARNWELL       FAIR      81  45  28 NW8       29.87F
MANNING        FAIR      79  50  36 W5        29.86S
CAMDEN         FAIR      75  46  35 W8        29.87S
LANCASTER      FAIR      75  48  38 CALM      29.85F
WINNSBORO      FAIR      75  48  38 W6        29.86F


...EASTERN AND COASTAL SOUTH CAROLINA...

CITY           SKY/WX    TMP DP  RH WIND       PRES   REMARKS
MYRTLE BEACH   MOSUNNY   79  54  41 W8        29.84F
N MYRTLE BCH   SUNNY     74  57  55 S12       29.84F
CONWAY         FAIR      77  52  41 SW5       29.85S
HARTSVILLE     FAIR      79  -9   3 W5        29.86S
FLORENCE       SUNNY     78  47  33 W12       29.84F
DARLINGTON     SUNNY     77  48  36 SW10G16   29.85S
CHARLESTON APT SUNNY     80  53  39 W9        29.87F
MOUNT PLEASANT FAIR      79  54  41 W7        29.87S
WALTERBORO     CLEAR     79  41  25 W12       29.88S
BEAUFORT       SUNNY     79  54  41 W6        29.88F


...EASTERN GEORGIA...

CITY           SKY/WX    TMP DP  RH WIND       PRES   REMARKS
AUGUSTA BUSH F SUNNY     81  43  26 NW15      29.88F
AUGUSTA DANIEL SUNNY     78  47  33 W10G18    29.89F
THOMSON        SUNNY     78  60  53 W6        29.94F
WASHINGTON     FAIR      79  55  44 W13G20    29.90S
CLAXTON        FAIR      81  54  39 W5        29.90F
SYLVANIA       CLEAR     83  51  33 NW15      29.89F
STATESBORO     SUNNY     80  53  39 NW8       29.89F
SAVANNAH       SUNNY     80  52  37 W9        29.90F


...SOUTHERN NORTH CAROLINA...

CITY           SKY/WX    TMP DP  RH WIND       PRES   REMARKS
CHARLOTTE      MOSUNNY   74  41  30 W12G17    29.87F
MONROE         SUNNY     75  45  34 W9G17     29.85F
WADESBORO      CLEAR     76  42  29 NW10      29.84S
ROCKINGHAM     PTCLDY    75  48  37 W8        29.84F
RUTHERFORDTON  SUNNY     72  42  34 NW13G18   29.90S
ASHEVILLE      SUNNY     64  41  42 N18G26    29.94R

$$



USA.gov is the U.S. government's official web portal to all federal, state and local government web resources and services.